RH
84 82 63 50 50 65 70 59 52 62 64 78 72 70 86 95 82 91 94 83 82 85 81 77 78 73 71 71 69 66 62 57 62 61 58 64 65 65 65 65 67 65 65 64 65 62 68 78 80
70 58 48 55 59 64 50 52 46 63 73 72 72 73 81 87 83 97 93 81 81 82 80 77 74 73 72 72 70 66 64 59 58 59 59 60 63 64 64 65 65 66 66 62 60 68 76 75 80
47 47 48 59 81 65 56 42 75 67 68 71 86 85 82 92 84 89 84 79 78 80 78 74 75 73 70 68 66 65 63 58 58 58 60 60 62 63 60 63 63 65 65 62 63 72 78 77 80
41 43 44 53 65 51 57 66 70 79 73 74 86 91 82 79 81 82 77 75 78 81 81 84 78 72 69 67 66 64 61 61 60 61 63 63 63 63 60 59 62 62 64 66 64 73 79 80 77
45 44 48 59 60 42 57 63 68 73 78 80 76 87 88 86 79 79 77 73 85 95 93 89 80 72 67 64 63 62 60 59 61 62 64 64 65 60 57 56 59 59 60 64 68 69 76 77 80
42 40 48 50 39 40 58 58 56 71 74 74 82 87 94 86 84 81 76 81 93 96 94 85 73 69 64 62 62 62 64 62 60 61 58 54 56 57 55 56 57 58 58 56 58 60 63 65 66
46 40 48 55 36 63 58 63 72 67 70 80 73 88 96 94 84 82 81 90 94 94 92 90 85 73 66 68 64 63 62 61 59 58 58 54 51 54 55 55 56 56 58 55 52 53 54 55 56
42 35 43 38 37 64 60 69 73 73 83 66 74 86 91 86 85 84 88 95 95 94 93 92 90 87 87 85 68 66 64 62 61 60 58 60 54 56 59 58 64 57 55 53 50 47 48 55 58
33 40 42 30 47 59 62 65 79 80 88 84 94 77 76 84 85 88 92 93 90 91 94 94 93 92 90 86 78 65 62 62 63 68 68 68 82 77 69 66 64 64 59 56 54 50 52 59 58
34 42 33 22 45 60 63 61 79 86 92 82 88 93 89 85 87 93 96 92 91 96 91 89 85 84 81 69 74 80 82 89 87 84 86 86 87 87 74 73 68 66 66 63 61 62 62 62 69
29 28 24 48 67 64 79 83 81 84 89 81 85 96 90 91 90 94 91 87 88 81 84 82 83 90 90 89 91 91 82 85 94 90 90 91 83 88 84 87 90 89 76 78 73 69 68 67 70
26 27 37 60 66 70 81 85 94 93 86 78 86 90 90 95 96 88 86 84 84 92 82 92 84 93 93 96 97 96 94 85 96 95 93 95 93 92 90 89 90 90 85 80 76 76 73 74 71
25 52 64 60 76 84 76 91 94 97 92 87 89 85 93 91 92 91 83 76 83 90 92 93 93 94 95 94 96 94 91 89 92 89 86 94 84 85 89 87 85 85 84 82 78 75 71 73 74
44 63 70 64 76 80 86 91 85 90 87 89 86 91 92 91 92 92 88 89 87 86 91 92 94 93 93 94 93 96 96 95 96 96 91 82 91 94 88 78 85 88 89 88 84 80 77 75 74
51 52 55 69 73 78 69 71 83 83 85 89 88 88 89 89 86 83 82 88 84 87 88 92 91 92 93 92 94 95 97 95 98 98 95 94 93 91 89 89 88 83 88 88 90 88 87 86 80
31 43 55 52 59 72 56 50 88 91 88 90 90 87 80 80 77 75 79 81 85 88 89 90 86 93 93 92 94 97 97 98 98 97 94 86 91 95 96 97 97 95 86 91 93 92 92 91 90
34 40 41 34 52 66 74 67 82 90 87 88 90 87 84 83 77 80 80 85 90 90 91 94 93 92 91 92 95 96 89 90 93 92 93 87 86 84 95 96 94 96 99 99 97 96 96 95 93
37 37 38 34 40 67 81 66 74 89 90 86 92 90 87 76 74 74 79 86 86 85 81 84 79 82 89 94 82 83 83 85 87 92 89 88 89 87 94 95 94 95 95 95 96 98 98 98 96
32 35 35 32 34 57 62 62 70 83 88 88 92 91 77 70 62 49 67 67 64 57 59 61 63 68 66 70 76 76 81 86 89 88 85 86 86 81 88 92 91 92 94 94 93 97 99 98 99
34 37 37 33 38 48 62 64 81 86 85 83 83 77 67 56 46 48 54 56 54 64 72 73 76 78 79 81 86 84 85 93 91 91 88 84 77 81 66 80 86 88 92 90 92 95 97 92 98
36 37 37 35 47 65 67 73 79 70 80 80 85 81 72 66 50 50 49 61 61 68 76 79 84 86 84 84 85 88 88 92 93 94 90 86 79 78 79 80 82 85 86 88 90 92 94 98 95
39 33 35 45 50 60 56 69 58 78 76 65 82 80 74 58 43 46 50 53 61 75 82 85 84 86 85 86 88 85 90 92 95 95 94 86 81 79 79 81 82 87 90 90 92 82 93 96 97
33 34 48 52 57 52 51 64 56 70 72 69 57 46 56 54 52 63 63 51 57 77 82 92 87 86 88 88 89 93 92 95 95 94 88 83 81 77 76 82 85 88 92 93 93 92 93 94 97
32 36 46 57 53 67 54 57 70 88 93 55 56 59 70 70 69 63 53 48 71 76 86 91 89 87 85 86 88 89 90 91 94 92 90 86 84 82 80 81 86 90 91 92 93 95 95 94 96
36 47 64 70 79 74 57 68 77 92 78 57 72 74 74 68 67 60 62 88 56 72 85 88 86 82 82 83 88 87 87 88 90 91 93 88 87 86 85 87 89 92 91 93 96 98 98 96 97
46 46 71 65 72 75 62 85 87 93 77 70 73 77 77 80 87 91 91 62 51 72 83 84 82 80 84 85 86 89 87 91 90 92 90 91 91 91 88 88 90 90 91 94 95 97 97 97 98
50 59 53 62 76 80 81 90 86 80 90 86 79 75 84 86 92 88 75 50 62 81 82 84 81 82 84 86 90 90 88 86 85 85 90 93 91 83 78 84 86 91 91 93 92 96 96 96 97
51 61 67 77 76 82 76 90 98 94 84 80 83 85 82 86 85 72 48 52 76 82 85 86 85 84 86 89 91 87 86 85 88 90 92 93 93 85 88 92 94 90 93 94 93 95 94 96 96
73 76 83 82 94 95 97 88 88 94 81 82 74 67 82 79 61 44 44 54 77 86 88 86 86 87 89 92 92 92 92 92 94 94 94 88 86 91 94 94 93 92 96 93 95 95 94 95 94
78 86 86 91 88 96 96 93 92 85 83 69 74 79 58 46 43 42 44 58 85 88 89 88 87 87 89 92 94 95 95 94 91 90 86 84 91 94 93 91 94 94 91 95 96 97 95 96 97
Wind_Speed
5 3 2 4 5 5 3 5 1 3 2 2 2 3 7 5 2 3 2 6 9 8 6 6 10 10 10 13 14 11 8 6 8 6 7 8 9 10 10 10 11 11 10 10 8 5 12 10 10
4 3 4 3 5 2 5 3 5 4 6 9 7 4 6 5 5 8 6 6 9 7 6 6 11 11 11 11 10 8 8 5 6 6 5 7 8 9 10 10 10 10 10 8 8 9 12 10 12
4 3 4 5 3 3 4 2 5 9 10 2 5 5 3 4 8 4 9 10 9 6 5 7 10 10 9 8 7 6 7 5 5 6 5 6 7 8 9 10 10 10 9 8 7 9 11 9 11
2 5 5 5 3 5 3 3 9 5 4 8 5 8 4 4 6 7 10 10 8 5 7 8 9 8 7 6 6 6 5 6 6 6 7 7 8 8 8 8 9 9 9 8 7 9 10 12 11
4 3 4 2 3 4 4 4 6 4 4 3 3 5 4 4 12 14 11 8 8 6 6 6 8 8 6 5 5 5 4 4 4 4 5 6 7 7 7 7 7 7 7 7 7 7 10 11 13
4 3 4 2 4 2 3 3 5 4 3 6 5 5 3 9 12 9 9 7 5 8 6 5 7 7 5 5 5 5 4 2 2 2 3 4 5 5 6 6 6 6 6 5 6 7 8 8 7
6 4 4 4 3 1 4 2 3 5 5 3 4 5 5 8 9 9 7 7 7 5 6 4 3 4 5 5 4 3 3 2 0 1 2 3 4 4 5 6 6 6 6 6 5 6 7 7 7
5 4 2 4 4 5 3 4 2 6 4 3 1 6 7 7 10 10 8 7 5 4 4 4 3 3 3 1 4 4 1 1 1 2 3 3 4 5 6 5 6 7 7 7 6 5 5 6 7
3 5 2 4 5 4 4 5 3 2 5 3 2 4 9 15 12 10 7 4 3 2 3 4 5 4 3 3 3 3 2 2 2 3 5 4 2 4 6 7 7 8 8 8 6 5 4 5 5
5 4 6 4 5 6 4 4 8 4 3 3 6 9 15 14 12 11 7 5 4 5 6 7 4 5 3 1 1 1 2 1 2 2 3 2 3 4 5 7 9 9 9 8 8 7 5 5 2
4 5 4 2 3 5 6 4 2 9 2 4 14 15 13 13 10 11 9 8 11 11 5 8 4 4 4 3 2 2 2 2 2 3 3 3 3 3 4 3 3 4 6 3 4 3 2 2 1
0 3 2 4 4 5 4 4 5 3 3 10 13 11 8 11 10 11 10 11 10 8 7 3 5 5 4 3 2 3 2 2 3 4 4 4 3 4 4 3 4 4 2 5 4 3 3 3 2
3 1 4 6 9 7 7 4 5 3 4 11 10 9 12 11 11 7 10 11 7 5 5 7 6 6 5 4 1 1 2 2 2 2 4 3 3 4 4 3 4 4 3 3 4 4 4 5 4
3 5 3 6 4 5 7 4 3 3 5 9 11 11 10 10 9 4 5 7 5 6 6 6 7 6 5 2 2 2 2 2 3 3 3 3 4 4 4 4 4 4 3 3 3 4 4 4 3
7 5 4 1 3 2 6 2 4 11 9 10 10 8 7 7 7 11 8 5 8 5 7 8 7 6 2 1 1 0 1 2 3 3 4 5 4 5 5 4 4 5 3 5 4 3 3 3 3
3 5 3 4 7 2 2 6 3 10 12 12 9 6 8 8 9 9 7 7 7 6 8 7 1 5 4 1 2 2 3 3 4 4 4 7 6 5 3 3 3 4 3 3 3 3 3 4 3
4 3 4 5 8 5 1 4 6 9 10 11 9 8 7 6 8 8 7 7 8 6 3 3 4 3 3 4 4 4 6 5 4 4 4 6 7 8 6 5 5 6 3 3 3 4 3 4 4
3 3 3 5 3 4 4 7 10 12 11 11 8 7 7 8 12 7 5 6 7 6 6 6 4 3 4 4 5 4 5 4 4 4 5 6 5 7 5 5 6 5 4 4 5 4 2 4 4
1 3 5 5 6 6 11 6 14 14 11 10 8 9 10 9 3 6 6 7 8 7 8 7 9 7 4 4 2 2 2 2 3 4 6 6 6 6 6 4 5 5 5 5 5 4 3 3 3
4 4 7 7 3 8 4 8 6 12 18 16 12 12 11 6 6 6 6 6 6 8 8 8 7 7 6 4 2 2 2 3 3 3 4 5 5 5 5 4 4 5 4 5 5 4 4 4 2
4 5 5 8 2 2 5 5 4 5 5 7 7 5 7 6 7 6 7 6 8 8 7 7 7 6 6 5 3 2 3 2 2 2 2 3 5 5 5 5 4 4 3 3 3 3 4 3 3
3 5 4 5 4 4 3 5 5 4 6 4 3 4 6 9 11 12 10 9 7 7 7 6 6 6 5 5 2 2 1 1 2 1 1 2 3 4 4 4 5 5 3 4 3 3 2 2 4
6 3 1 2 3 3 1 2 7 4 3 3 5 9 10 14 16 13 10 3 2 4 5 5 5 4 4 1 2 2 1 1 1 1 2 3 3 4 4 4 4 4 3 4 5 5 4 3 3
3 5 7 5 3 1 4 6 6 2 3 2 7 11 12 14 13 12 5 4 4 1 4 3 3 2 2 1 2 3 1 2 2 2 2 3 2 3 3 4 4 4 4 5 4 5 5 4 3
7 6 4 4 4 7 0 2 3 5 10 8 12 11 12 13 14 7 4 4 4 4 3 3 2 0 2 1 1 1 1 3 2 3 2 4 3 2 4 3 4 3 4 5 5 5 5 4 3
1 5 6 5 4 6 1 3 3 6 9 11 11 11 12 12 9 2 6 7 5 4 5 4 3 2 2 2 3 3 6 3 2 3 3 4 3 4 4 5 4 5 5 5 4 3 4 5 4
2 2 2 2 3 2 2 2 3 8 7 7 9 10 9 8 6 6 6 8 5 5 7 5 2 2 4 4 4 6 5 4 5 6 4 4 5 4 4 5 6 6 5 5 5 4 5 4 5
6 2 4 4 2 4 4 3 3 2 9 8 6 6 7 6 5 8 10 4 5 6 4 3 2 4 4 5 5 5 5 5 5 5 6 6 5 4 6 6 6 6 5 6 5 4 5 5 5
6 4 6 6 4 4 1 6 3 10 7 6 5 8 8 8 7 5 4 5 6 3 2 1 2 5 6 6 6 6 5 6 5 4 4 3 4 6 6 6 8 6 6 6 5 6 6 6 7
3 3 3 6 4 0 2 6 6 7 8 4 5 7 4 5 4 4 4 4 6 4 4 4 2 2 5 5 5 6 5 5 5 4 5 5 5 6 6 7 7 6 5 7 6 7 6 7 8
Wind_Direction
145 119 69 41 53 65 261 252 300 113 122 73 30 116 106 34 77 151 107 87 98 89 87 96 96 93 82 78 73 83 83 74 73 63 57 61 52 42 36 37 37 37 35 44 64 69 66 45 60
138 127 50 79 83 58 268 248 183 156 123 126 80 68 50 88 68 114 114 98 96 100 97 96 94 87 81 83 97 109 102 84 69 82 51 64 48 36 32 28 33 36 32 39 71 49 37 41 55
133 54 81 93 116 179 252 301 101 123 146 92 98 51 71 85 123 97 122 116 107 110 113 108 99 97 96 93 97 89 87 72 54 49 55 47 47 38 29 22 24 28 33 33 37 30 30 26 58
103 15 36 87 209 254 226 52 114 101 51 40 89 70 71 341 146 127 130 123 119 109 88 105 107 104 96 98 96 91 79 68 47 31 25 20 34 30 28 21 21 21 26 22 34 16 6 13 27
38 60 59 38 263 273 343 93 114 131 96 54 90 123 70 38 111 126 132 133 123 101 100 106 116 116 112 111 110 98 88 72 55 31 24 15 14 17 16 15 15 19 23 25 28 29 12 20 23
43 95 71 221 257 291 110 102 110 90 94 132 97 103 78 122 126 135 134 115 101 122 122 124 136 129 120 125 124 122 116 110 90 43 9 7 8 1 359 3 2 5 15 25 30 25 30 32 20
120 91 197 188 243 216 152 97 78 106 110 96 157 93 121 156 142 132 110 101 117 115 119 114 112 132 131 131 136 136 155 133 57 346 332 343 340 340 345 351 347 353 356 2 18 38 42 27 22
110 94 162 226 206 229 135 80 60 60 104 102 24 139 162 163 137 106 97 97 109 126 130 145 153 140 130 133 173 158 143 186 237 300 302 294 304 315 330 327 334 337 341 345 354 9 42 54 43
121 58 280 246 150 205 164 108 25 49 95 89 325 124 140 129 118 105 102 85 110 154 185 196 201 190 177 186 214 183 194 233 263 308 308 318 316 302 308 296 300 313 325 328 339 347 1 33 26
101 118 235 219 170 158 125 105 136 127 138 89 91 95 117 129 132 131 138 159 191 204 216 214 202 202 192 206 223 275 233 222 242 244 261 275 279 277 278 286 296 300 302 321 332 336 356 32 9
160 196 232 35 95 94 113 90 101 134 196 181 156 135 133 136 145 149 168 181 197 204 204 210 188 201 190 204 226 229 221 245 281 281 275 278 270 286 294 296 299 293 290 308 321 320 339 347 342
161 247 267 132 92 84 91 85 52 23 304 135 138 131 133 149 163 164 179 201 205 197 206 133 203 211 221 228 241 250 232 229 240 242 276 249 263 277 276 287 295 282 292 289 287 284 282 270 227
199 82 37 75 81 79 87 60 122 32 94 115 128 141 157 169 186 185 201 204 182 176 182 192 191 217 224 209 197 6 275 296 291 287 272 242 249 251 279 276 285 281 291 275 279 270 263 274 268
33 86 77 35 72 110 115 155 102 237 151 133 154 168 177 185 188 193 222 216 171 179 187 186 190 207 206 186 147 216 256 293 291 289 290 266 251 248 241 254 258 261 235 259 266 280 292 280 267
153 78 58 35 170 152 153 164 191 168 168 163 176 181 184 201 184 214 220 184 191 194 187 192 197 196 132 195 213 89 339 359 346 340 339 311 284 263 246 251 258 264 246 246 222 254 256 265 279
47 57 105 222 172 194 50 258 142 168 168 183 187 193 205 213 217 222 207 188 184 169 194 200 151 96 126 104 49 28 30 46 41 35 21 14 2 338 305 291 287 289 264 256 250 221 239 232 237
1 206 199 302 190 141 160 258 162 175 184 193 202 208 210 224 233 218 185 190 178 194 165 96 94 102 105 69 62 65 67 60 46 41 29 20 20 20 31 23 9 347 330 292 264 251 207 244 237
236 239 253 236 190 152 164 256 171 185 189 199 204 218 218 216 229 203 171 109 103 98 97 90 73 73 85 76 89 72 71 56 41 34 33 31 31 33 29 19 13 4 7 7 352 300 228 235 249
315 217 252 254 203 149 214 212 192 189 199 206 205 209 218 217 206 104 110 116 108 73 89 75 73 41 68 62 40 60 63 54 46 38 29 36 30 25 29 11 5 6 14 360 358 327 319 279 241
228 244 263 281 205 173 166 226 198 192 208 205 198 209 206 173 141 124 126 105 88 100 88 79 73 60 52 58 47 53 68 79 77 47 39 32 25 19 15 6 357 0 354 357 358 9 334 303 311
249 200 245 224 105 70 110 318 201 229 229 213 227 235 217 169 142 93 89 85 95 92 89 84 75 71 60 53 32 25 39 26 33 12 2 4 12 2 0 360 357 350 357 343 337 330 355 316 311
271 202 226 178 123 227 133 275 278 219 233 217 303 57 62 80 61 47 30 47 42 61 70 70 72 68 60 50 43 87 153 207 241 208 267 314 347 331 332 342 347 335 330 328 320 336 304 290 289
226 47 45 90 123 59 266 79 264 20 280 21 102 102 94 96 98 84 71 33 59 75 83 92 89 82 73 97 128 101 106 271 272 287 330 330 320 328 346 342 331 317 316 299 298 305 307 287 284
107 64 44 47 72 60 239 148 283 3 317 12 79 81 91 94 94 91 111 131 93 206 93 100 112 81 66 70 56 94 94 304 331 308 322 308 288 301 318 322 315 308 302 294 286 279 273 278 269
62 54 324 338 10 226 190 74 248 348 329 154 118 97 95 91 78 53 36 305 216 193 186 192 182 92 272 32 0 32 335 266 266 281 275 299 304 281 296 287 296 285 284 281 278 271 262 264 257
271 152 165 239 222 253 292 236 320 79 61 83 88 100 96 86 96 187 279 276 252 199 217 207 205 238 266 319 324 318 274 275 277 266 275 281 267 282 285 289 280 279 281 280 283 272 264 259 256
353 21 273 105 13 32 287 297 96 117 93 96 112 106 103 120 155 212 254 233 217 208 215 204 227 326 332 329 324 288 276 288 284 295 289 285 277 281 289 295 291 288 290 278 280 269 267 255 258
86 359 26 4 2 290 315 333 280 276 158 157 161 123 104 100 221 244 226 209 213 218 196 195 346 354 318 326 303 285 299 306 307 315 313 306 296 281 289 293 290 281 289 282 280 278 270 261 264
351 26 53 110 111 156 299 278 6 308 184 180 157 133 175 198 212 195 220 218 217 208 176 232 287 354 340 325 309 308 314 324 329 325 309 303 293 295 306 298 288 279 279 280 277 265 268 260 262
70 103 98 110 282 276 161 291 8 77 106 129 154 187 139 140 149 160 234 237 219 215 223 236 14 330 351 324 328 335 332 342 349 342 315 325 324 316 299 297 294 285 295 293 280 279 274 269 268